Wind_Speed
34 35 37 40 42 42 42 42 41 39 37 37 36 35 35 34 33 33 34 33 32 30 28 25 25 28 30 31 30 28 28 29 29 28 28 25 22 21 21 17 12 11
36 36 38 41 45 48 48 45 42 41 40 39 39 38 38 37 37 36 36 36 35 33 30 27 28 29 29 30 32 31 30 30 28 28 29 28 25 23 23 21 17 14
33 35 38 41 45 48 49 47 45 43 42 42 41 41 40 39 38 37 37 37 37 36 34 32 31 31 29 28 29 29 30 31 30 29 30 30 28 26 24 23 22 19
25 29 33 36 40 44 47 48 48 46 46 45 45 42 40 39 37 37 38 38 38 38 37 36 34 35 35 32 30 29 30 31 31 30 31 31 30 27 26 25 23 23
24 24 26 30 33 38 42 46 49 50 50 49 47 45 41 38 38 39 41 40 40 40 40 39 37 37 38 36 33 30 29 31 31 31 31 32 32 29 27 26 25 24
29 26 27 29 31 34 37 41 46 51 53 53 51 47 43 40 39 40 42 43 43 43 43 42 41 40 40 39 36 32 30 31 31 31 31 32 33 32 29 27 26 26
31 29 30 33 35 37 39 40 41 45 50 53 54 52 47 43 41 41 42 43 44 45 45 44 42 42 42 42 41 38 35 34 33 32 31 32 33 34 32 30 28 27
28 28 28 27 29 33 38 41 42 42 45 48 51 54 53 49 45 42 42 43 44 44 44 44 43 42 43 44 44 43 40 38 36 33 31 30 31 33 33 32 31 30
24 29 28 25 23 22 24 31 38 40 42 45 48 51 54 53 49 45 42 43 45 45 44 43 43 42 43 44 44 44 42 41 38 35 32 29 30 31 31 32 33 33
28 34 33 30 26 22 18 17 22 28 33 39 43 47 51 54 52 48 44 43 44 46 47 44 42 41 43 44 44 44 44 43 40 38 36 33 31 29 29 31 34 35
30 35 36 34 30 26 22 19 20 23 28 34 38 42 45 51 54 50 47 44 42 44 48 46 43 41 42 44 44 44 44 44 43 42 40 39 35 32 32 34 36 39
32 35 39 38 36 33 31 31 30 28 29 33 37 39 40 45 53 53 50 47 42 41 44 46 44 42 43 45 45 44 44 44 45 45 45 43 40 37 36 36 38 41
37 40 43 44 42 39 38 40 40 33 27 28 33 38 39 41 47 53 54 52 47 44 43 43 43 43 44 46 46 46 45 45 46 46 46 46 44 42 40 39 40 41
42 42 45 46 46 44 41 42 42 38 34 34 39 44 46 46 45 48 52 54 53 52 50 48 46 46 46 48 48 48 47 47 47 47 47 47 45 43 41 40 41 40
49 47 47 47 48 49 48 46 46 46 48 51 54 56 55 52 47 45 47 52 54 57 58 56 53 51 50 51 50 49 49 48 47 47 47 46 46 44 41 41 41 41
53 51 50 49 50 50 50 50 50 51 53 56 60 62 60 56 52 48 47 50 53 56 58 58 56 54 54 54 53 51 50 50 49 49 49 47 47 46 44 42 42 42
58 56 54 53 52 51 51 52 51 51 52 53 56 60 60 56 53 52 51 53 54 54 54 54 54 54 55 57 57 56 55 54 53 53 53 51 50 49 48 46 44 43
62 60 59 58 56 54 52 53 52 51 50 49 50 53 55 54 52 51 53 55 54 53 54 55 55 54 54 56 57 58 58 57 57 57 56 55 53 52 51 50 48 46
66 65 63 62 60 58 55 53 52 51 49 48 46 47 51 53 52 50 52 54 53 52 54 55 54 52 53 54 55 55 56 57 58 57 57 56 54 53 52 51 50 49
70 69 67 66 64 61 59 55 53 51 50 48 46 45 47 51 52 51 51 52 52 51 51 53 52 50 50 52 53 53 53 56 57 57 56 56 53 51 50 50 50 49
72 71 69 68 66 64 62 59 56 53 50 49 48 47 46 48 51 52 51 51 52 51 51 53 54 51 48 49 52 53 54 55 57 57 56 55 53 51 49 48 47 48
72 71 70 68 67 66 64 62 60 57 54 51 49 48 48 48 49 50 51 51 52 52 51 52 55 55 52 50 51 54 56 57 58 58 57 56 54 53 50 46 43 44
71 70 70 70 69 69 68 66 64 61 58 55 52 50 50 49 48 50 51 52 53 53 53 53 55 57 58 56 54 55 57 59 60 59 59 59 57 56 54 49 44 43
73 72 72 72 72 71 70 69 68 65 62 59 56 54 52 50 50 51 52 54 55 55 55 55 55 57 59 60 59 58 59 61 63 63 63 62 60 58 58 54 49 46
69 69 69 69 69 68 68 68 68 67 65 62 60 57 55 53 53 54 55 55 56 57 58 58 58 58 60 62 63 62 63 63 64 65 66 66 64 61 59 57 54 50
61 62 62 62 62 63 64 65 66 66 66 65 63 61 58 55 55 56 58 58 58 59 60 61 61 61 62 65 66 65 66 67 66 67 68 68 68 65 62 60 59 57
Wind_Direction
268 265 262 263 264 263 262 262 260 257 259 263 266 268 268 266 266 267 263 254 245 240 239 234 232 242 249 249 250 248 251 259 261 256 253 248 244 249 257 262 260 256
260 262 263 265 265 265 263 262 258 255 257 261 264 267 267 266 267 267 264 257 246 240 238 232 230 239 248 251 254 255 257 260 257 252 251 247 241 243 249 255 258 262
263 265 266 267 268 268 265 261 257 255 256 260 264 267 266 266 267 265 262 257 249 241 235 230 228 233 241 248 254 257 259 260 257 250 248 246 243 242 244 248 254 261
271 270 271 273 273 273 270 265 261 258 258 260 263 266 265 265 265 261 258 255 250 243 237 234 233 233 237 243 248 253 258 260 257 251 247 245 244 244 243 244 250 257
277 276 278 283 284 283 280 274 268 265 263 263 263 265 264 264 264 261 256 253 250 244 239 239 241 240 239 238 241 247 255 259 258 254 249 247 246 246 244 244 248 254
284 284 286 291 293 292 288 282 277 272 269 267 265 265 263 263 265 262 257 253 250 246 242 241 245 246 242 237 234 237 245 252 256 256 253 250 247 247 246 246 248 251
297 297 299 303 303 300 294 288 283 278 273 270 267 265 263 262 265 262 256 252 250 248 245 243 246 248 245 239 234 233 237 243 248 252 254 252 248 249 250 250 249 248
304 299 297 299 301 303 302 298 294 287 279 273 268 264 262 262 263 261 255 250 248 248 246 245 246 247 246 242 237 235 238 240 239 242 249 251 249 250 252 253 251 247
286 277 274 271 270 279 295 305 307 303 294 285 275 266 260 259 260 259 254 248 246 245 245 245 245 246 246 243 240 239 240 240 235 235 241 245 247 249 250 252 251 248
272 267 265 262 255 254 262 279 295 299 295 290 283 272 261 255 255 256 252 248 246 245 244 244 246 246 244 242 240 240 243 242 237 235 237 239 242 243 241 241 245 246
271 275 273 267 258 253 252 251 256 264 269 276 281 278 267 255 250 251 250 247 245 245 244 245 246 246 243 240 239 240 242 243 242 240 241 241 241 239 233 231 235 239
257 266 272 272 266 259 256 254 253 254 263 273 276 276 271 260 251 248 247 246 244 241 241 242 242 241 240 238 238 238 239 239 240 241 242 243 242 238 233 231 232 236
259 258 264 269 270 265 260 257 254 252 261 273 272 269 268 265 257 251 247 246 245 242 239 239 239 238 236 236 235 235 236 236 236 237 239 240 240 238 235 233 233 237
276 271 272 274 275 273 269 263 256 248 247 254 261 264 265 265 264 259 252 249 248 247 245 243 242 238 234 233 232 232 233 234 234 234 235 235 235 235 234 234 235 237
282 280 280 279 279 278 275 271 263 254 249 251 256 262 265 264 263 263 259 254 252 250 248 247 246 243 238 234 232 231 231 233 234 234 233 231 230 230 230 232 235 237
282 282 281 280 279 278 277 275 270 263 257 255 255 258 262 263 260 257 254 252 251 251 251 250 249 247 243 238 235 234 234 234 236 237 236 234 232 230 229 229 231 234
279 279 279 279 278 277 276 275 272 268 263 259 255 255 258 260 258 253 249 248 248 249 250 251 250 246 243 240 237 236 237 239 239 240 240 240 238 236 233 231 230 233
277 276 276 276 275 274 274 273 272 269 266 262 258 255 255 256 255 252 249 248 247 248 248 247 247 246 242 239 237 237 238 239 239 238 239 239 239 238 237 236 236 237
276 275 274 273 272 271 270 269 269 269 267 265 262 257 254 253 252 251 249 248 247 247 247 246 244 243 242 239 237 236 237 238 238 237 236 236 236 236 237 238 240 241
274 274 273 272 271 270 268 266 265 266 266 266 264 261 256 253 251 249 248 249 248 245 244 242 240 241 241 239 237 236 236 236 236 236 235 234 234 235 237 239 240 242
271 271 271 271 270 269 268 266 264 262 261 262 263 262 259 255 252 249 247 246 246 245 241 238 236 237 238 237 236 234 233 233 233 232 231 231 231 232 234 237 238 239
267 267 268 268 268 268 267 266 265 262 259 257 257 258 259 257 254 251 247 244 242 242 240 236 233 232 232 233 233 232 231 230 230 230 229 229 229 229 231 234 235 236
265 265 265 266 266 266 266 266 265 263 260 256 253 252 254 255 255 253 249 244 240 239 238 235 231 229 231 232 230 230 230 228 228 228 228 229 230 229 230 231 232 233
265 265 265 265 265 264 264 264 264 263 261 258 253 250 249 250 252 253 250 246 242 237 235 233 230 227 229 232 231 229 229 229 227 227 227 228 230 230 230 230 229 230
266 266 265 264 263 263 262 261 261 261 260 258 255 252 248 246 247 250 251 249 244 239 234 231 229 226 226 230 232 231 231 231 230 228 227 227 228 229 230 229 228 230
267 267 266 265 264 262 261 260 259 259 258 258 256 254 251 248 245 246 249 249 247 243 237 232 229 226 224 227 231 232 232 232 232 231 229 227 227 229 230 230 230 231
Height
10924 10925 10926 10926 10926 10927 10929 10932 10934 10936 10937 10938 10939 10940 10941 10943 10945 10946 10947 10948 10950 10953 10956 10959 10961 10962 10963 10963 10964 10965 10966 10967 10968 10969 10970 10971 10971 10972 10972 10972 10972 10971
10917 10917 10919 10920 10920 10921 10922 10925 10928 10930 10932 10933 10935 10936 10937 10939 10942 10943 10944 10945 10947 10949 10952 10954 10956 10958 10959 10960 10961 10961 10963 10963 10964 10965 10966 10967 10968 10969 10970 10970 10970 10970
10912 10913 10914 10915 10915 10916 10917 10919 10922 10925 10927 10928 10930 10931 10932 10935 10938 10938 10939 10941 10943 10946 10947 10949 10950 10953 10955 10957 10957 10958 10959 10959 10960 10961 10962 10963 10964 10966 10967 10967 10968 10968
10910 10911 10912 10913 10913 10913 10913 10915 10917 10920 10922 10923 10925 10927 10928 10930 10933 10933 10933 10936 10939 10941 10943 10944 10946 10948 10949 10952 10953 10954 10955 10956 10957 10957 10958 10959 10961 10962 10963 10964 10964 10965
10909 10910 10911 10912 10912 10912 10912 10912 10914 10916 10918 10919 10921 10923 10924 10925 10927 10927 10927 10930 10934 10936 10938 10940 10942 10943 10944 10946 10948 10950 10951 10952 10953 10953 10954 10956 10957 10959 10960 10961 10961 10962
10908 10911 10912 10913 10913 10912 10912 10912 10912 10913 10913 10915 10917 10919 10921 10922 10922 10922 10923 10924 10927 10930 10932 10934 10936 10938 10940 10941 10943 10945 10946 10948 10949 10950 10951 10953 10954 10955 10957 10958 10958 10958
10911 10916 10917 10916 10915 10913 10911 10911 10911 10911 10910 10910 10912 10914 10916 10918 10918 10918 10918 10919 10921 10923 10926 10928 10930 10932 10934 10936 10937 10939 10941 10942 10944 10946 10947 10949 10950 10951 10953 10954 10955 10955
10917 10918 10918 10917 10915 10914 10912 10909 10907 10907 10906 10906 10907 10909 10911 10913 10914 10914 10914 10914 10915 10917 10919 10922 10923 10925 10927 10930 10932 10934 10936 10937 10939 10941 10942 10944 10946 10947 10949 10950 10951 10952
10912 10907 10906 10907 10907 10908 10910 10909 10906 10904 10901 10899 10899 10901 10904 10906 10908 10909 10909 10910 10910 10912 10914 10917 10919 10920 10923 10925 10928 10929 10931 10932 10934 10935 10937 10939 10941 10943 10946 10946 10946 10948
10898 10893 10893 10896 10898 10900 10902 10904 10903 10901 10897 10893 10890 10892 10895 10898 10901 10903 10904 10905 10906 10907 10910 10913 10916 10917 10919 10921 10924 10925 10927 10928 10929 10930 10932 10935 10936 10939 10942 10942 10941 10943
10889 10882 10880 10884 10891 10896 10898 10896 10894 10892 10888 10884 10881 10882 10884 10888 10892 10896 10898 10899 10901 10903 10906 10910 10913 10915 10916 10917 10919 10921 10922 10924 10925 10927 10928 10930 10932 10934 10935 10935 10935 10935
10885 10876 10871 10873 10880 10888 10892 10890 10887 10885 10884 10881 10877 10875 10876 10879 10882 10887 10891 10894 10897 10899 10902 10905 10908 10910 10911 10911 10912 10914 10916 10918 10920 10922 10924 10926 10928 10929 10929 10929 10929 10928
10879 10874 10869 10869 10871 10876 10880 10881 10881 10882 10882 10881 10878 10873 10872 10873 10875 10879 10884 10888 10892 10894 10897 10899 10901 10902 10903 10903 10904 10906 10908 10910 10913 10915 10917 10920 10923 10924 10924 10924 10924 10925
10870 10869 10867 10865 10864 10866 10869 10871 10874 10876 10876 10876 10874 10870 10868 10869 10872 10876 10878 10882 10885 10887 10888 10890 10891 10893 10893 10893 10895 10897 10899 10902 10904 10906 10909 10912 10915 10918 10919 10920 10920 10921
10860 10862 10861 10860 10858 10858 10859 10862 10864 10866 10867 10866 10865 10864 10863 10867 10873 10875 10872 10873 10874 10875 10876 10879 10882 10885 10886 10887 10889 10891 10893 10895 10897 10898 10901 10904 10907 10910 10913 10915 10915 10917
10851 10852 10853 10853 10852 10851 10851 10852 10854 10855 10856 10857 10857 10856 10856 10860 10867 10868 10863 10861 10862 10863 10866 10870 10874 10878 10881 10883 10887 10889 10891 10892 10893 10894 10895 10898 10901 10903 10906 10908 10909 10911
10842 10843 10844 10845 10845 10845 10844 10844 10844 10845 10846 10847 10848 10848 10848 10850 10854 10856 10853 10852 10853 10855 10859 10863 10865 10868 10872 10877 10881 10884 10885 10886 10888 10889 10890 10893 10895 10898 10900 10901 10903 10905
10833 10834 10836 10837 10838 10838 10838 10837 10837 10837 10837 10837 10838 10839 10840 10841 10844 10845 10844 10845 10847 10850 10852 10854 10857 10860 10863 10868 10872 10875 10876 10877 10878 10880 10882 10885 10888 10891 10894 10896 10898 10900
10824 10825 10826 10828 10829 10830 10831 10831 10831 10830 10829 10829 10829 10830 10831 10832 10835 10836 10836 10837 10840 10844 10845 10847 10850 10853 10855 10859 10863 10866 10867 10868 10870 10872 10875 10878 10881 10884 10887 10889 10892 10894
10816 10816 10817 10819 10820 10821 10822 10824 10824 10824 10823 10823 10822 10822 10822 10823 10825 10827 10828 10828 10831 10835 10838 10840 10843 10845 10848 10851 10855 10857 10858 10860 10863 10867 10870 10872 10875 10878 10880 10883 10885 10887
10808 10808 10808 10809 10810 10811 10812 10814 10815 10816 10817 10816 10816 10815 10814 10814 10816 10818 10820 10820 10822 10826 10830 10833 10836 10838 10842 10845 10847 10849 10851 10853 10856 10860 10863 10866 10868 10871 10874 10877 10879 10880
10799 10799 10799 10799 10800 10801 10801 10803 10804 10806 10808 10809 10809 10808 10807 10806 10808 10809 10811 10812 10814 10817 10821 10824 10827 10830 10834 10838 10840 10842 10844 10847 10850 10853 10857 10859 10861 10864 10867 10870 10872 10873
10790 10790 10790 10790 10790 10791 10791 10792 10793 10795 10797 10799 10800 10800 10800 10800 10801 10800 10800 10802 10804 10807 10811 10815 10819 10822 10825 10829 10832 10834 10836 10840 10843 10847 10850 10852 10855 10857 10860 10863 10865 10866
10778 10779 10779 10779 10779 10780 10781 10781 10782 10783 10785 10788 10790 10792 10793 10794 10793 10791 10791 10792 10794 10797 10801 10805 10809 10814 10817 10819 10822 10826 10828 10831 10835 10839 10842 10845 10848 10851 10853 10856 10857 10859
10765 10766 10767 10767 10768 10769 10769 10770 10771 10772 10773 10775 10779 10781 10784 10786 10786 10784 10783 10783 10784 10787 10791 10795 10799 10804 10808 10810 10812 10816 10819 10822 10826 10830 10834 10837 10841 10844 10846 10848 10850 10851
10754 10754 10754 10755 10756 10757 10758 10759 10760 10761 10762 10764 10767 10770 10773 10776 10778 10778 10777 10776 10776 10777 10781 10785 10789 10794 10799 10802 10803 10806 10809 10813 10817 10820 10824 10829 10833 10835 10837 10839 10841 10843